User: anonymous
Location: Cincinnati Observatory Center
(39.1389°N, 84.4225°W)
Time: 14:18:13
(UTC-04:00)
Language:

JAS-1B - Orbit

View from above orbital plane
View from above orbital plane
View from above satellite
View from above satellite

Ground track
Ground track

The orbit data is extracted from the following two-line orbital elements,

1 20480U 90013C   14273.45352513 -.00000014  00000-0  33061-4 0  8613
2 20480 099.0578 216.8474 0541001 115.3786 354.7511 12.83396412154632
Epoch (UTC): 30 September 2014 10:53:04
Eccentricity: 0.0541001
inclination: 99.0578°
perigee height: 911 km
apogee height: 1745 km
right ascension of ascending node: 216.8474°
argument of perigee: 115.3786°
revolutions per day: 12.83396412
mean anomaly at epoch: 354.7511°
orbit number at epoch: 15463

The dashed part of the orbit path shows where the satellite is in the earth's shadow,  

DLR